NA0H Weather Reports


Display with metric or nautical units.
time (UTC)temp
F
wind
direction
speed
MPH
gust
MPH
rain 1hr
in
rain 24hr
in
rain mn
in
humidity
%
barometer
mb
20260906200003 84 108 1.0 4.0 0.00 0.00 0.00 69 1013.4
20260906195716 84 112 1.0 4.0 0.00 0.00 0.00 68 1013.3
20260906195003 84 106 1.0 4.0 0.00 0.00 0.00 70 1013.4
20260906194503 84 121 1.0 4.0 0.00 0.00 0.00 70 1013.4
20260906194003 84 112 1.0 4.0 0.00 0.02 0.00 71 1013.2
20260906193716 84 105 1.0 4.0 0.00 0.02 0.00 71 1013.3
20260906193003 84 112 1.0 6.0 0.00 0.03 0.00 73 1013.4
20260906192503 83 105 1.0 6.0 0.00 0.04 0.00 73 1013.5
20260906192003 84 105 1.0 5.0 0.00 0.04 0.00 71 1013.6
20260906191503 83 101 1.0 4.0 0.00 0.04 0.00 73 1013.7
20260906191003 83 103 1.0 4.0 0.00 0.04 0.00 73 1013.9
20260906190504 83 89 1.0 3.0 0.00 0.04 0.00 73 1014.0
20260906190003 83 76 1.0 3.0 0.00 0.04 0.00 73 1014.0
20260906185503 83 89 1.0 3.0 0.00 0.04 0.00 72 1014.0
20260906185003 83 124 0.0 4.0 0.00 0.04 0.00 72 1014.0
20260906184503 83 160 0.0 4.0 0.00 0.04 0.00 73 1013.9
20260906184003 82 158 0.0 3.0 0.00 0.04 0.00 75 1014.0
20260906183503 82 92 0.0 3.0 0.00 0.04 0.00 75 1014.1
20260906183217 82 81 0.0 3.0 0.00 0.04 0.00 73 1014.1
20260906182503 82 108 0.0 2.0 0.00 0.04 0.00 73 1014.2
20260906182003 82 122 0.0 4.0 0.00 0.04 0.00 75 1014.3
20260906181503 82 122 0.0 4.0 0.00 0.04 0.00 73 1014.4
20260906181003 82 0 0.0 0.0 0.00 0.04 0.00 75 1014.4
20260906180718 82 0 0.0 0.0 0.00 0.04 0.00 74 1014.4
20260906180219 82 0 0.0 0.0 0.00 0.04 0.00 74 1014.4
20260906175503 82 173 0.0 2.0 0.00 0.04 0.00 75 1014.5
20260906175003 82 141 0.0 2.0 0.00 0.04 0.00 75 1014.6
20260906174503 81 133 0.0 3.0 0.00 0.04 0.00 76 1014.7
20260906174003 81 127 0.0 3.0 0.00 0.04 0.00 74 1014.8
20260906173715 81 73 0.0 2.0 0.00 0.04 0.00 76 1014.8
20260906173003 81 91 1.0 4.0 0.00 0.04 0.00 76 1015.0
20260906172503 81 105 0.0 3.0 0.00 0.04 0.00 76 1015.1
20260906172218 80 102 0.0 3.0 0.00 0.04 0.00 76 1015.2
20260906171503 80 183 0.0 1.0 0.00 0.04 0.00 79 1015.4
20260906171003 80 0 0.0 0.0 0.00 0.04 0.00 77 1015.4
20260906170717 80 0 0.0 0.0 0.00 0.04 0.00 78 1015.4
20260906170003 79 0 0.0 0.0 0.00 0.04 0.00 78 1015.7
20260906165503 78 0 0.0 0.0 0.00 0.04 0.00 80 1015.7
20260906165003 78 0 0.0 0.0 0.00 0.04 0.00 80 1015.7
20260906164503 78 0 0.0 0.0 0.00 0.04 0.00 81 1015.7
20260906164003 78 92 0.0 1.0 0.00 0.04 0.00 81 1015.8
20260906163719 78 92 0.0 1.0 0.00 0.04 0.00 80 1015.9
20260906163003 78 0 0.0 0.0 0.00 0.04 0.00 80 1015.9
20260906162503 77 0 0.0 0.0 0.00 0.04 0.00 82 1015.9
20260906162003 77 0 0.0 0.0 0.00 0.04 0.00 82 1015.9
20260906161503 77 60 0.0 2.0 0.00 0.04 0.00 82 1015.9
20260906161216 76 60 0.0 2.0 0.00 0.04 0.00 83 1015.9
20260906160503 76 0 0.0 0.0 0.00 0.04 0.00 84 1015.9
20260906160003 75 0 0.0 0.0 0.00 0.04 0.00 85 1015.9
20260906155503 75 0 0.0 0.0 0.00 0.04 0.00 85 1015.9
20260906155003 75 0 0.0 0.0 0.00 0.04 0.00 84 1016.0
20260906154503 74 0 0.0 0.0 0.00 0.04 0.00 85 1016.0
20260906154003 74 0 0.0 0.0 0.00 0.04 0.00 86 1015.9
20260906153719 74 0 0.0 0.0 0.00 0.04 0.00 86 1016.0
20260906153003 73 96 0.0 3.0 0.00 0.04 0.00 88 1015.9
20260906152503 72 92 0.0 3.0 0.00 0.04 0.00 90 1016.0
20260906152218 72 93 0.0 3.0 0.00 0.04 0.00 91 1015.9
20260906151504 71 0 0.0 0.0 0.00 0.04 0.00 94 1016.0
20260906151003 70 0 0.0 0.0 0.00 0.04 0.00 94 1016.0
20260906150503 70 360 0.0 2.0 0.00 0.04 0.00 94 1015.9
20260906150003 70 360 0.0 2.0 0.00 0.04 0.00 94 1015.9
20260906145503 70 360 0.0 3.0 0.00 0.04 0.00 95 1015.9
20260906145215 70 360 0.0 3.0 0.00 0.04 0.00 95 1015.9
20260906144503 69 0 0.0 0.0 0.00 0.04 0.00 95 1016.0
20260906144003 69 0 0.0 0.0 0.00 0.04 0.00 96 1015.9
20260906143503 69 0 0.0 0.0 0.00 0.04 0.00 95 1016.0
20260906143003 69 0 0.0 0.0 0.00 0.04 0.00 96 1016.0
20260906142503 68 0 0.0 0.0 0.00 0.04 0.00 96 1016.1
20260906142003 68 0 0.0 0.0 0.00 0.04 0.00 96 1016.2
20260906141503 68 0 0.0 0.0 0.00 0.04 0.00 96 1016.2
20260906141003 68 0 0.0 0.0 0.00 0.04 0.00 96 1016.0
20260906140503 68 0 0.0 0.0 0.00 0.04 0.00 96 1016.1
20260906140003 68 0 0.0 0.0 0.00 0.04 0.00 96 1016.1
20260906135718 67 0 0.0 0.0 0.00 0.04 0.00 96 1016.1
20260906135003 67 0 0.0 0.0 0.00 0.04 0.00 96 1016.1
20260906134716 67 360 0.0 2.0 0.00 0.04 0.00 96 1016.1
20260906134003 67 360 0.0 2.0 0.00 0.04 0.00 96 1016.0
20260906133718 67 0 0.0 0.0 0.00 0.04 0.00 96 1016.0
20260906133003 67 0 0.0 0.0 0.00 0.04 0.00 96 1016.1
20260906132503 67 0 0.0 0.0 0.00 0.04 0.00 96 1016.0
20260906132217 66 0 0.0 0.0 0.00 0.04 0.00 96 1016.0
20260906131503 66 0 0.0 0.0 0.00 0.04 0.00 96 1016.2
20260906131003 66 0 0.0 0.0 0.00 0.04 0.00 96 1016.2
20260906130503 66 0 0.0 0.0 0.00 0.04 0.00 96 1016.1
20260906130003 66 0 0.0 0.0 0.00 0.04 0.00 96 1015.9
20260906125503 66 0 0.0 0.0 0.00 0.04 0.00 96 1015.9
20260906125003 66 0 0.0 0.0 0.00 0.04 0.00 96 1015.9
20260906124503 66 0 0.0 0.0 0.00 0.04 0.00 96 1015.8
20260906124217 65 0 0.0 0.0 0.00 0.04 0.00 96 1015.8
20260906123718 65 0 0.0 0.0 0.00 0.04 0.00 96 1015.7
20260906123003 65 0 0.0 0.0 0.00 0.04 0.00 96 1015.7
20260906122503 65 0 0.0 0.0 0.00 0.04 0.00 96 1015.6
20260906122217 65 0 0.0 0.0 0.00 0.04 0.00 96 1015.6
20260906121503 65 0 0.0 0.0 0.00 0.04 0.00 96 1015.6
20260906121003 64 0 0.0 0.0 0.00 0.04 0.00 95 1015.7
20260906120503 64 0 0.0 0.0 0.00 0.04 0.00 95 1015.7
20260906120003 64 0 0.0 0.0 0.00 0.04 0.00 95 1015.8
20260906115717 64 0 0.0 0.0 0.00 0.04 0.00 95 1015.8
20260906115003 64 0 0.0 0.0 0.00 0.04 0.00 95 1015.7
20260906114503 64 0 0.0 0.0 0.00 0.04 0.00 95 1015.6
20260906114003 64 0 0.0 0.0 0.00 0.04 0.00 95 1015.7
20260906113717 64 0 0.0 0.0 0.00 0.04 0.00 95 1015.8
20260906113003 64 0 0.0 0.0 0.00 0.04 0.00 95 1015.8
20260906112503 64 0 0.0 0.0 0.00 0.04 0.00 95 1015.8
20260906112003 64 0 0.0 0.0 0.00 0.04 0.00 95 1015.8
20260906111503 64 0 0.0 0.0 0.00 0.04 0.00 95 1015.7
20260906111218 64 0 0.0 0.0 0.00 0.04 0.00 95 1015.7
20260906110503 65 0 0.0 0.0 0.00 0.04 0.00 95 1015.7
20260906110003 65 0 0.0 0.0 0.00 0.04 0.00 95 1015.7
20260906105503 65 0 0.0 0.0 0.00 0.04 0.00 95 1015.8
20260906105003 65 0 0.0 0.0 0.00 0.04 0.00 95 1015.7
20260906104503 65 0 0.0 0.0 0.00 0.04 0.00 95 1015.6
20260906104003 65 0 0.0 0.0 0.00 0.04 0.00 95 1015.5
20260906103503 65 0 0.0 0.0 0.00 0.04 0.00 95 1015.7
20260906103003 65 0 0.0 0.0 0.00 0.04 0.00 95 1015.7
20260906102503 65 0 0.0 0.0 0.00 0.04 0.00 95 1015.5
20260906102003 65 0 0.0 0.0 0.00 0.04 0.00 95 1015.4
20260906101503 65 0 0.0 0.0 0.00 0.04 0.00 95 1015.4
20260906101218 65 0 0.0 0.0 0.00 0.04 0.00 95 1015.4
20260906100719 65 0 0.0 0.0 0.00 0.04 0.00 95 1015.2
20260906100003 65 0 0.0 0.0 0.00 0.04 0.00 95 1015.1
20260906095503 65 0 0.0 0.0 0.00 0.04 0.00 95 1015.2
20260906095003 65 0 0.0 0.0 0.00 0.04 0.00 95 1015.1
20260906094503 65 0 0.0 0.0 0.00 0.04 0.00 95 1015.1
20260906094003 65 0 0.0 0.0 0.00 0.04 0.00 95 1015.2
20260906093503 65 0 0.0 0.0 0.00 0.04 0.00 95 1014.8
20260906093003 65 0 0.0 0.0 0.00 0.04 0.00 95 1014.5
20260906092718 65 0 0.0 0.0 0.00 0.04 0.00 95 1014.6
20260906092219 65 0 0.0 0.0 0.00 0.04 0.00 95 1014.9
20260906091503 65 0 0.0 0.0 0.00 0.04 0.00 95 1015.0
20260906091003 65 0 0.0 0.0 0.00 0.04 0.00 95 1014.9
20260906090718 65 0 0.0 0.0 0.00 0.04 0.00 95 1014.9
20260906090219 65 0 0.0 0.0 0.00 0.04 0.00 95 1014.9
20260906085503 66 360 0.0 1.0 0.00 0.04 0.00 95 1015.0
20260906085217 66 360 1.0 6.0 0.00 0.04 0.00 95 1015.0
20260906084503 66 360 1.0 6.0 0.00 0.04 0.00 96 1015.1
20260906084003 65 360 0.0 3.0 0.00 0.04 0.00 95 1015.1
20260906083503 65 360 0.0 3.0 0.00 0.04 0.00 95 1014.6
20260906083003 65 360 0.0 3.0 0.00 0.04 0.00 95 1014.3
20260906082503 65 0 0.0 0.0 0.00 0.04 0.00 95 1014.5
20260906082003 65 360 0.0 1.0 0.00 0.04 0.00 95 1014.5
20260906081503 65 360 0.0 1.0 0.00 0.04 0.00 95 1014.7
20260906081003 65 360 0.0 1.0 0.00 0.04 0.00 95 1014.8
20260906080718 65 360 0.0 2.0 0.00 0.04 0.00 95 1014.8
20260906080003 65 360 0.0 2.0 0.00 0.04 0.00 95 1014.9
20260906075503 65 360 0.0 2.0 0.00 0.04 0.00 95 1014.8
20260906075217 65 360 0.0 2.0 0.00 0.04 0.00 95 1014.9
20260906074503 65 0 0.0 0.0 0.00 0.04 0.00 95 1015.1
20260906074003 65 360 0.0 1.0 0.00 0.04 0.00 95 1015.2
20260906073503 65 360 0.0 1.0 0.00 0.04 0.00 95 1015.3
20260906073003 65 0 0.0 0.0 0.00 0.04 0.00 95 1015.3
20260906072503 65 360 0.0 1.0 0.00 0.04 0.00 95 1015.3
20260906072003 65 360 0.0 2.0 0.00 0.04 0.00 95 1015.3
20260906071503 65 360 0.0 2.0 0.00 0.04 0.00 94 1015.3
20260906071003 65 360 0.0 2.0 0.00 0.04 0.00 94 1015.3
20260906070503 65 360 0.0 1.0 0.00 0.04 0.00 94 1015.3
20260906070003 65 360 0.0 1.0 0.00 0.04 0.00 94 1015.4
20260906065715 65 360 0.0 1.0 0.00 0.04 0.00 94 1015.4
20260906065003 65 360 0.0 3.0 0.00 0.04 0.00 95 1015.4
20260906064503 65 360 0.0 3.0 0.00 0.04 0.00 95 1015.6
20260906064003 65 360 0.0 3.0 0.00 0.04 0.00 94 1015.5
20260906063503 65 360 0.0 1.0 0.00 0.04 0.00 94 1015.5
20260906063216 65 360 0.0 1.0 0.00 0.04 0.00 95 1015.5
20260906062717 65 360 0.0 1.0 0.00 0.04 0.00 94 1015.6
20260906062003 65 0 0.0 0.0 0.00 0.04 0.00 94 1015.6
20260906061503 65 0 0.0 0.0 0.00 0.04 0.00 94 1015.6
20260906061003 65 0 0.0 0.0 0.00 0.04 0.00 94 1015.7
20260906060503 65 360 0.0 1.0 0.00 0.04 0.00 94 1015.8
20260906060003 65 360 0.0 1.0 0.00 0.04 0.00 94 1015.8
20260906055503 65 360 0.0 1.0 0.00 0.04 0.00 94 1015.8
20260906055003 65 360 0.0 1.0 0.00 0.04 0.00 94 1015.7
20260906054503 65 0 0.0 0.0 0.00 0.04 0.00 94 1015.6
20260906054003 65 0 0.0 0.0 0.00 0.04 0.00 94 1015.6
20260906053503 65 0 0.0 0.0 0.00 0.04 0.00 94 1015.6
20260906053003 65 0 0.0 0.0 0.00 0.04 0.00 94 1015.6
20260906052503 65 0 0.0 0.0 0.00 0.04 0.00 94 1015.6
20260906052003 65 360 0.0 1.0 0.00 0.04 0.00 94 1015.7
20260906051503 65 360 0.0 1.0 0.00 0.04 0.00 94 1015.7
20260906051003 65 360 0.0 1.0 0.00 0.04 0.00 94 1015.7
20260906050503 65 360 0.0 1.0 0.00 0.04 0.00 94 1015.7
20260906050003 65 360 0.0 1.0 0.00 0.04 0.00 94 1015.7
20260906045719 65 360 0.0 1.0 0.00 0.04 0.04 94 1015.8
20260906045003 65 360 0.0 1.0 0.00 0.04 0.04 94 1015.7
20260906044503 66 360 0.0 1.0 0.00 0.04 0.04 94 1015.7
20260906044003 66 360 0.0 1.0 0.00 0.04 0.04 94 1015.7
20260906043503 66 0 0.0 0.0 0.00 0.04 0.04 94 1015.9
20260906043003 66 360 0.0 1.0 0.00 0.04 0.04 94 1015.8
20260906042503 66 360 0.0 1.0 0.00 0.04 0.04 94 1015.8
20260906042003 66 360 0.0 1.0 0.00 0.04 0.04 94 1015.9
20260906041503 66 0 0.0 0.0 0.00 0.04 0.04 94 1015.9
20260906041003 65 360 0.0 1.0 0.00 0.04 0.04 94 1015.9
20260906040503 65 360 0.0 1.0 0.00 0.04 0.04 94 1015.9
20260906040003 65 360 0.0 1.0 0.00 0.04 0.04 93 1015.9
20260906035503 65 360 0.0 1.0 0.00 0.04 0.04 93 1016.0
20260906035003 66 360 0.0 1.0 0.00 0.04 0.04 93 1016.0
20260906034503 66 0 0.0 0.0 0.00 0.04 0.04 93 1015.9
20260906034003 66 0 0.0 0.0 0.00 0.04 0.04 93 1015.9
20260906033503 66 360 0.0 1.0 0.00 0.04 0.04 93 1015.8
20260906033003 66 360 0.0 1.0 0.00 0.04 0.04 93 1015.7
20260906032716 66 0 0.0 0.0 0.00 0.04 0.04 93 1015.7
20260906032003 66 360 0.0 1.0 0.00 0.04 0.04 93 1015.6
20260906031503 66 360 0.0 1.0 0.00 0.04 0.04 92 1015.5
20260906031003 66 360 0.0 2.0 0.00 0.04 0.04 92 1015.4
20260906030503 66 360 0.0 2.0 0.00 0.04 0.04 92 1015.5
20260906030217 66 0 0.0 0.0 0.00 0.04 0.04 92 1015.6
20260906025718 66 0 0.0 0.0 0.00 0.04 0.04 92 1015.7
20260906025003 66 0 0.0 0.0 0.00 0.04 0.04 92 1015.5
20260906024503 66 0 0.0 0.0 0.00 0.04 0.04 92 1015.5
20260906024003 66 360 0.0 1.0 0.00 0.04 0.04 92 1015.4
20260906023503 66 360 0.0 1.0 0.00 0.04 0.04 92 1015.4
20260906023003 66 360 0.0 1.0 0.00 0.04 0.04 92 1015.3
20260906022716 66 360 0.0 1.0 0.00 0.04 0.04 92 1015.3
20260906022003 67 360 0.0 1.0 0.00 0.04 0.04 91 1015.5
20260906021718 67 360 0.0 1.0 0.00 0.04 0.04 91 1015.4
20260906021003 67 360 0.0 1.0 0.00 0.04 0.04 91 1015.4
20260906020503 67 360 0.0 4.0 0.00 0.04 0.04 91 1015.4
20260906020216 67 360 0.0 4.0 0.00 0.04 0.04 91 1015.3
20260906015503 67 360 0.0 2.0 0.00 0.04 0.04 91 1015.1
20260906015003 67 360 0.0 2.0 0.00 0.04 0.04 91 1015.0
20260906014503 67 360 1.0 2.0 0.00 0.04 0.04 91 1015.1
20260906014003 67 360 0.0 2.0 0.00 0.04 0.04 90 1015.0
20260906013503 67 360 0.0 2.0 0.00 0.04 0.04 90 1014.8
20260906013003 67 360 0.0 2.0 0.00 0.04 0.04 90 1014.8
20260906012503 67 360 0.0 2.0 0.00 0.04 0.04 89 1014.8
20260906012003 68 360 0.0 2.0 0.00 0.04 0.04 89 1014.8
20260906011503 68 360 0.0 2.0 0.00 0.04 0.04 89 1014.6
20260906011003 68 360 0.0 2.0 0.00 0.04 0.04 88 1014.4
20260906010503 68 360 0.0 2.0 0.00 0.04 0.04 88 1014.2
20260906010216 68 360 0.0 1.0 0.00 0.04 0.04 88 1014.2
20260906005717 69 360 0.0 2.0 0.00 0.04 0.04 87 1014.2
20260906005218 69 360 0.0 2.0 0.00 0.04 0.04 87 1014.1
20260906004503 69 157 0.0 2.0 0.00 0.04 0.04 85 1014.1
20260906004003 70 155 0.0 3.0 0.00 0.04 0.04 85 1014.1
20260906003503 70 153 0.0 3.0 0.00 0.04 0.04 85 1013.9
20260906003003 70 150 0.0 2.0 0.00 0.04 0.04 84 1013.6
20260906002503 71 150 0.0 2.0 0.00 0.04 0.04 83 1013.5
20260906002003 71 152 0.0 2.0 0.00 0.04 0.04 83 1013.5
20260906001503 71 138 1.0 6.0 0.00 0.04 0.04 82 1013.5
20260906001003 72 132 1.0 6.0 0.00 0.04 0.04 81 1013.5
20260906000503 72 122 0.0 1.0 0.00 0.04 0.04 82 1013.4
20260906000003 72 122 0.0 2.0 0.00 0.04 0.04 81 1013.5
20260905235503 72 131 1.0 7.0 0.00 0.04 0.04 81 1013.6
20260905235003 73 133 1.0 7.0 0.00 0.04 0.04 80 1013.4
20260905234503 73 131 1.0 7.0 0.00 0.04 0.04 80 1013.5
20260905234003 74 128 1.0 6.0 0.00 0.04 0.04 79 1013.4
20260905233503 74 185 0.0 6.0 0.00 0.04 0.04 79 1013.4
20260905233218 74 186 0.0 6.0 0.00 0.04 0.04 79 1013.5
20260905232719 75 100 0.0 3.0 0.00 0.04 0.04 78 1013.4
20260905232003 74 92 0.0 3.0 0.00 0.04 0.04 79 1013.4
20260905231503 74 117 1.0 3.0 0.00 0.04 0.04 79 1013.3
20260905231003 74 136 1.0 3.0 0.00 0.04 0.04 81 1013.2
20260905230503 74 149 1.0 5.0 0.00 0.04 0.04 82 1013.4
20260905230003 74 150 1.0 7.0 0.00 0.04 0.04 81 1013.4
20260905225503 75 151 1.0 7.0 0.00 0.04 0.04 79 1013.5
20260905225003 76 147 1.0 5.0 0.00 0.04 0.04 77 1013.5
20260905224718 76 139 1.0 5.0 0.00 0.04 0.04 76 1013.4
20260905224003 76 127 1.0 3.0 0.00 0.04 0.04 78 1013.5
20260905223716 76 154 0.0 3.0 0.00 0.04 0.04 78 1013.4
20260905223003 76 179 1.0 6.0 0.00 0.04 0.04 79 1013.3
20260905222503 76 180 1.0 6.0 0.00 0.04 0.04 80 1013.3
20260905222219 76 181 1.0 6.0 0.00 0.04 0.04 80 1013.3
20260905221503 75 155 1.0 5.0 0.00 0.04 0.04 81 1013.3
20260905221003 74 104 0.0 2.0 0.00 0.04 0.04 82 1013.4
20260905220503 74 102 1.0 3.0 0.00 0.04 0.04 83 1013.1
20260905220003 74 113 0.0 3.0 0.00 0.04 0.04 83 1013.3
20260905215503 73 130 0.0 3.0 0.00 0.04 0.04 83 1013.3
20260905215003 73 126 0.0 3.0 0.00 0.04 0.04 85 1013.1
20260905214503 73 124 0.0 2.0 0.00 0.04 0.04 85 1013.3
20260905214003 72 124 1.0 3.0 0.00 0.04 0.04 85 1013.3
20260905213503 73 121 2.0 4.0 0.00 0.04 0.04 85 1012.8
20260905213003 73 124 2.0 4.0 0.00 0.04 0.04 83 1012.8
20260905212503 74 116 2.0 4.0 0.00 0.04 0.04 83 1012.7
20260905212219 74 102 2.0 6.0 0.00 0.04 0.04 85 1012.7
20260905211503 72 100 2.0 6.0 0.00 0.04 0.04 88 1012.8
20260905211003 72 101 2.0 4.0 0.00 0.04 0.04 87 1012.8
20260905210503 72 100 2.0 6.0 0.00 0.04 0.04 85 1012.8
20260905210003 72 110 2.0 6.0 0.00 0.04 0.04 86 1012.9
20260905205503 72 116 2.0 4.0 0.00 0.04 0.04 88 1012.9
20260905205003 71 118 2.0 4.0 0.00 0.04 0.04 87 1013.1
20260905204503 72 108 2.0 4.0 0.00 0.04 0.04 87 1013.3
20260905204003 72 111 2.0 4.0 0.02 0.04 0.04 86 1013.3
20260905203503 73 130 1.0 4.0 0.02 0.04 0.04 87 1013.4
20260905203003 73 130 1.0 3.0 0.03 0.04 0.04 86 1013.8
20260905202717 73 126 1.0 3.0 0.04 0.04 0.04 87 1013.6
20260905202003 72 128 2.0 4.0 0.04 0.04 0.04 91 1013.4
20260905201503 71 126 2.0 4.0 0.04 0.04 0.04 94 1013.4
20260905201003 70 68 1.0 4.0 0.04 0.04 0.04 94 1013.7
20260905200503 69 360 1.0 4.0 0.04 0.04 0.04 94 1013.6